Location: Unspecified
(49.9820°N, 20.4363°E)
Time: 13:32:43
(UTC+02:00)

ISS - Pass Details

Date: 21 May 2018
Orbit: 402 x 407 km, 51.6° (Epoch: 20 May)

Event Time Altitude Azimuth Distance (km) Brightness Sun altitude
Rises 23:52:43 0° 264° (W) 2,317 0.1 -19.1°
Reaches altitude 10° 23:54:48 10° 267° (W) 1,458 -0.9 -19.1°
Maximum altitude 23:58:03 69° 351° (N) 437 -3.6 -19.2°
Drops below altitude 10° 00:01:19 10° 76° (ENE) 1,459 -1.0 -19.3°
Sets 00:03:24 0° 79° (E) 2,319 0.1 -19.4°
